[[{"header":{"parameterUnit":"m.s-1","parameterCategory":1,"la1":30.2991,"la2":30.254,"lo1":-89.0895,"lo2":-89.0444,"dy":0.0017,"dx":0.0017,"nx":28,"ny":28,"refTime":"2024-05-28T09:00:00:Z","depth":0,"parameterNumber":2,"parameterNumberName":"U-component_of_WINDS"},"data":[0,0,0,0,0,0,0,0,0,0,0,0,0,0,0,0,0,0,0,0,0,0,0,0,0,0,0,0,0,0,0,0,0,0,0,0,0,0,0,0,0,0,0,0,0,0,0,0,0,0,0,0,0,0,0,0,0,0,-0.4022,-0.4022,0,-0.4031,-0.4031,-0.4031,-0.4056,-0.4057,-0.4058,-0.4058,-0.4064,-0.4064,-0.4063,0,0,0,0,0,0,0,0,0,0,0,0,0,-0.4024,-0.4024,-0.4022,-0.4022,-0.4022,-0.4031,-0.4031,-0.4031,-0.4056,-0.4057,-0.4058,-0.4058,-0.4064,-0.4064,-0.4063,0,0,0,0,0,0,0,0,0,0,0,0,0,-0.4027,-0.4024,-0.4022,-0.4036,-0.4037,-0.4031,-0.4031,-0.4031,-0.4056,-0.4057,-0.4058,-0.4059,-0.4064,-0.4064,-0.4063,-0.4043,0,0,-0.4062,-0.4061,0,0,0,0,0,0,0,0,-0.4027,-0.4027,-0.4033,-0.4035,-0.4036,-0.4043,-0.4034,-0.4035,-0.4056,-0.4049,-0.4058,-0.4059,-0.4056,-0.4057,-0.4056,-0.4044,-0.4044,-0.4062,-0.4061,-0.4061,-0.4061,0,0,0,0,0,0,0,-0.4026,-0.4027,-0.4025,-0.4034,-0.4035,-0.4041,-0.4042,-0.4034,-0.4048,-0.4049,-0.4051,-0.4052,-0.4057,-0.4057,-0.4057,-0.4044,-0.4062,-0.4061,-0.4061,-0.4061,-0.4016,-0.4015,0,0,0,0,0,0,-0.4025,-0.4026,-0.4025,-0.4025,-0.4034,-0.404,-0.4042,-0.404,-0.4048,-0.405,-0.4052,-0.4053,-0.4057,-0.4057,-0.4057,-0.4035,-0.4061,-0.4061,-0.406,-0.4017,-0.4016,-0.4015,0,0,0,0,0,0,-0.4025,-0.4024,-0.4025,-0.4026,-0.4027,-0.4039,-0.4037,-0.404,-0.404,-0.4049,-0.4052,-0.4049,-0.4058,-0.4058,-0.4047,-0.4035,-0.406,-0.406,-0.4018,-0.4017,-0.4016,-0.3989,0,0,0,0,0,0,-0.4025,-0.4024,-0.4017,-0.4026,-0.4027,-0.4015,-0.4037,-0.4039,-0.4039,-0.4041,-0.4047,-0.4049,-0.4059,-0.4048,-0.4046,-0.4035,-0.4059,-0.4019,-0.4017,-0.4016,-0.3991,-0.3987,-0.3984,0,0,0,0,0,-0.4025,-0.4008,-0.4016,-0.4016,-0.4018,-0.4014,-0.4014,-0.4027,-0.4038,-0.4031,-0.4037,-0.4049,-0.4037,-0.4046,-0.4045,-0.4033,-0.402,-0.4018,-0.4016,-0.3993,-0.3988,-0.3984,0,0,0,0,0,0,-0.3996,-0.401,-0.4019,-0.4005,-0.4009,-0.4019,-0.401,-0.4021,-0.402,-0.4022,-0.4036,-0.4037,-0.4025,-0.4028,-0.4038,-0.4015,-0.403,-0.4028,-0.4013,-0.4009,-0.4005,-0.4004,-0.4059,0,0,0,0,0,-0.3988,-0.3985,-0.3997,-0.3983,-0.3985,-0.3997,-0.3996,-0.4005,-0.4008,-0.4009,-0.4015,-0.4017,-0.4014,-0.4012,-0.4009,-0.3992,-0.3994,-0.3983,-0.398,-0.3977,-0.3974,-0.3966,-0.3962,-0.4009,-0.4009,-0.4009,0,0,-0.3972,-0.3979,-0.3976,-0.3978,-0.3982,-0.3977,-0.3998,-0.3992,-0.3988,-0.4008,-0.3999,-0.4003,-0.4007,-0.3993,-0.3987,-0.3995,-0.3962,-0.3974,-0.3972,-0.3971,-0.3964,-0.3959,-0.3955,-0.4007,-0.4008,-0.4008,0,0,-0.394,-0.3945,-0.3935,-0.3939,-0.3945,-0.3953,-0.3951,-0.3959,-0.3963,-0.3955,-0.397,-0.3966,-0.3959,-0.3962,-0.3962,-0.3932,-0.3943,-0.3931,-0.3911,-0.3903,-0.39,-0.3896,-0.3886,-0.3882,-0.3929,-0.3929,-0.3929,0,-0.3919,-0.3913,-0.3928,-0.3922,-0.3922,-0.3942,-0.3932,-0.3934,-0.3938,-0.3938,-0.3947,-0.3941,-0.3945,-0.3932,-0.3925,-0.3924,-0.3922,-0.393,-0.3899,-0.3896,-0.3893,-0.3884,-0.388,-0.3927,-0.3927,-0.3928,-0.3928,0,-0.3887,-0.3883,-0.3874,-0.3879,-0.3879,-0.3871,-0.3884,-0.3882,-0.3891,-0.3899,-0.389,-0.3895,-0.3894,-0.3892,-0.3901,-0.3881,-0.3886,-0.3897,-0.3913,-0.3887,-0.3878,-0.3875,-0.3925,-0.3926,-0.3926,-0.3926,0,0,-0.3836,-0.3851,-0.3848,-0.3851,-0.3859,-0.3856,-0.3849,-0.3849,-0.3847,-0.385,-0.3844,-0.3839,-0.385,-0.385,-0.386,-0.3852,-0.3829,-0.3865,-0.3865,-0.3858,-0.3808,-0.38,-0.3795,-0.3837,-0.3836,-0.3836,-0.3808,0,-0.3806,-0.3796,-0.3809,-0.3795,-0.3792,-0.3811,-0.3805,-0.3809,-0.3816,-0.3814,-0.3821,-0.3818,-0.3832,-0.3833,-0.3826,-0.3833,-0.382,-0.3836,-0.3831,-0.3831,-0.383,-0.3791,-0.3781,-0.3755,-0.3805,-0.3804,-0.3804,0,-0.377,-0.3772,-0.3758,-0.3769,-0.3768,-0.3762,-0.3764,-0.3762,-0.3767,-0.3773,-0.3774,-0.3786,-0.3779,-0.3795,-0.3786,-0.3797,-0.3796,-0.3799,-0.3798,-0.3798,-0.3815,-0.3789,-0.3747,-0.3743,-0.3798,-0.3799,-0.3799,0,-0.3734,-0.3734,-0.3726,-0.3728,-0.374,-0.3735,-0.374,-0.3746,-0.3746,-0.3748,-0.3748,-0.3749,-0.3749,-0.3749,-0.376,-0.3771,-0.375,-0.3766,-0.3754,-0.3753,-0.3748,-0.3748,-0.3704,-0.3747,-0.3747,-0.3747,-0.3748,0,-0.3699,-0.369,-0.3711,-0.3705,-0.3696,-0.3712,-0.3701,-0.3708,-0.3713,-0.371,-0.3726,-0.3722,-0.3737,-0.3735,-0.3744,-0.3735,-0.3735,-0.3739,-0.3741,-0.3737,-0.3736,-0.3736,-0.3738,-0.3746,-0.3747,-0.3747,-0.3747,0,-0.3658,-0.3671,-0.3664,-0.3676,-0.3679,-0.3672,-0.3682,-0.3678,-0.3687,-0.3682,-0.3681,-0.3694,-0.3692,-0.3704,-0.3704,-0.371,-0.3697,-0.3702,-0.3695,-0.3697,-0.3683,-0.3684,-0.3638,-0.3633,-0.3679,-0.3679,-0.3678,0,-0.3635,-0.3628,-0.3641,-0.364,-0.3644,-0.3643,-0.3643,-0.3659,-0.3658,-0.3665,-0.366,-0.3659,-0.366,-0.3656,-0.3665,-0.3665,-0.367,-0.3654,-0.367,-0.3667,-0.367,-0.367,-0.367,-0.365,-0.365,-0.3649,-0.3649,0,-0.3592,-0.3599,-0.36,-0.3603,-0.3604,-0.3607,-0.361,-0.3609,-0.3626,-0.3624,-0.3624,-0.3624,-0.3625,-0.3624,-0.3626,-0.363,-0.3642,-0.3644,-0.3641,-0.3637,-0.3633,-0.3635,-0.3686,-0.3645,-0.3645,-0.3646,-0.3646,-0.3646,-0.3559,-0.3555,-0.3563,-0.3563,-0.3568,-0.3572,-0.3569,-0.3578,-0.3578,-0.358,-0.3589,-0.3587,-0.3593,-0.3597,-0.36,-0.3598,-0.3606,-0.3602,-0.36,-0.3599,-0.3597,-0.3634,-0.3599,-0.3599,-0.3599,-0.3599,-0.3599,0,-0.3517,-0.3524,-0.3524,-0.353,-0.3531,-0.3543,-0.3549,-0.3548,-0.3546,-0.3551,-0.3552,-0.3551,-0.3551,-0.3561,-0.3562,-0.3558,-0.3563,-0.3558,-0.3558,-0.3559,-0.359,-0.3592,-0.3553,-0.3553,-0.3553,-0.3553,-0.3553,-0.3553,-0.3496,-0.3489,-0.3497,-0.3493,-0.35,-0.3499,-0.3501,-0.3504,-0.3509,-0.3507,-0.3508,-0.3515,-0.3522,-0.3524,-0.3524,-0.3527,-0.3526,-0.3519,-0.3523,-0.3552,-0.3556,-0.3561,-0.3563,-0.3518,-0.3518,-0.3492,-0.3492,-0.3492]},{"header":{"parameterUnit":"m.s-1","parameterCategory":1,"la1":30.2991,"la2":30.254,"lo1":-89.0895,"lo2":-89.0444,"dy":0.0017,"dx":0.0017,"nx":28,"ny":28,"refTime":"2024-05-28T09:00:00:Z","depth":0,"parameterNumber":3,"parameterNumberName":"V-component_of_WINDS"},"data":[0,0,0,0,0,0,0,0,0,0,0,0,0,0,0,0,0,0,0,0,0,0,0,0,0,0,0,0,0,0,0,0,0,0,0,0,0,0,0,0,0,0,0,0,0,0,0,0,0,0,0,0,0,0,0,0,0,0,3.6694,3.6693,0,3.6642,3.6642,3.6641,3.6546,3.6545,3.6543,3.6541,3.649,3.649,3.649,0,0,0,0,0,0,0,0,0,0,0,0,0,3.6713,3.6713,3.6694,3.6693,3.6693,3.6642,3.6642,3.6641,3.6547,3.6544,3.6542,3.654,3.6489,3.649,3.649,0,0,0,0,0,0,0,0,0,0,0,0,0,3.6688,3.6713,3.6694,3.664,3.6634,3.6643,3.6642,3.6641,3.6547,3.6544,3.6542,3.6539,3.6489,3.649,3.649,3.6548,0,0,3.6492,3.6492,0,0,0,0,0,0,0,0,3.6689,3.6687,3.6648,3.6643,3.6637,3.6598,3.6629,3.661,3.6548,3.658,3.6541,3.6538,3.6528,3.6525,3.6521,3.6546,3.6544,3.6492,3.6492,3.6492,3.6493,0,0,0,0,0,0,0,3.6691,3.6689,3.6674,3.6648,3.6641,3.6618,3.6612,3.6625,3.657,3.6577,3.657,3.6565,3.6524,3.6521,3.652,3.6543,3.6492,3.6492,3.6493,3.6493,3.6613,3.6615,0,0,0,0,0,0,3.6701,3.6691,3.6675,3.6672,3.6657,3.662,3.6613,3.6613,3.657,3.656,3.6568,3.6561,3.6522,3.6519,3.6517,3.6582,3.6492,3.6493,3.6493,3.661,3.6613,3.6616,0,0,0,0,0,0,3.6701,3.67,3.6677,3.6679,3.6675,3.6623,3.6624,3.6614,3.661,3.6562,3.6552,3.6574,3.6519,3.6517,3.6541,3.6579,3.6493,3.6494,3.6606,3.6611,3.6615,3.6713,0,0,0,0,0,0,3.6702,3.6701,3.6722,3.6681,3.6675,3.6702,3.6627,3.6615,3.6611,3.6602,3.6566,3.6558,3.6517,3.6541,3.6542,3.6578,3.6494,3.6603,3.6608,3.6614,3.6706,3.672,3.6732,0,0,0,0,0,3.6703,3.6752,3.6723,3.6722,3.67,3.6704,3.6701,3.6653,3.6615,3.6636,3.6605,3.6559,3.6575,3.6544,3.6544,3.6582,3.66,3.6607,3.6613,3.67,3.6718,3.6732,0,0,0,0,0,0,3.6799,3.6745,3.6713,3.675,3.6732,3.6688,3.6713,3.6673,3.6666,3.6658,3.6599,3.6592,3.6624,3.6605,3.6572,3.6636,3.658,3.6587,3.6647,3.6663,3.6676,3.6679,3.6494,0,0,0,0,0,3.6824,3.6832,3.6784,3.6821,3.6814,3.6766,3.6765,3.673,3.671,3.6702,3.6673,3.6656,3.6657,3.6659,3.6657,3.6703,3.6694,3.6729,3.6742,3.6753,3.676,3.6783,3.6798,3.6638,3.6638,3.6638,0,0,3.6877,3.6848,3.6857,3.684,3.6822,3.6831,3.676,3.6773,3.6779,3.6704,3.6725,3.6704,3.668,3.6716,3.6731,3.6702,3.6802,3.6761,3.6771,3.6771,3.6792,3.6807,3.682,3.6642,3.6641,3.6641,0,0,3.6977,3.6956,3.6985,3.6968,3.6942,3.691,3.6917,3.6879,3.6862,3.6882,3.6826,3.6834,3.6837,3.6823,3.6816,3.6912,3.6869,3.6913,3.6981,3.7005,3.7018,3.7029,3.7063,3.7076,3.692,3.692,3.6921,0,3.7046,3.7057,3.7005,3.7021,3.7016,3.6948,3.6977,3.6964,3.6939,3.6937,3.6905,3.6908,3.6888,3.6919,3.6943,3.694,3.6946,3.6917,3.702,3.703,3.704,3.7072,3.7086,3.6926,3.6925,3.6925,3.6924,0,3.7143,3.7152,3.7178,3.7155,3.7153,3.7176,3.7128,3.7132,3.7097,3.7068,3.709,3.7064,3.7056,3.7061,3.7027,3.7088,3.7071,3.7031,3.6974,3.7062,3.7091,3.7103,3.6934,3.6932,3.693,3.6929,0,0,3.7301,3.725,3.726,3.7249,3.7216,3.7222,3.7243,3.7234,3.7239,3.7225,3.7241,3.7246,3.7208,3.7201,3.7165,3.7186,3.7264,3.7142,3.7141,3.7166,3.7331,3.7361,3.7377,3.7236,3.7238,3.724,3.7333,0,3.7394,3.7425,3.7379,3.742,3.7428,3.7365,3.7382,3.7364,3.7338,3.7342,3.7313,3.7317,3.7267,3.7263,3.728,3.7251,3.7297,3.7244,3.7251,3.7251,3.7258,3.7392,3.7424,3.7513,3.7344,3.7346,3.7347,0,3.7506,3.7497,3.754,3.7504,3.7506,3.7523,3.7512,3.7516,3.7495,3.7474,3.7467,3.7424,3.7442,3.7388,3.7412,3.7377,3.7378,3.7364,3.7366,3.7365,3.7305,3.7394,3.754,3.7554,3.7365,3.7363,3.7362,0,3.7618,3.7616,3.7641,3.7634,3.7594,3.7607,3.7591,3.7567,3.7565,3.7556,3.7555,3.7548,3.7545,3.7541,3.7499,3.7463,3.7529,3.747,3.7513,3.7514,3.7529,3.7529,3.7678,3.753,3.753,3.753,3.7529,0,3.7727,3.7755,3.7691,3.7707,3.7737,3.7684,3.7716,3.7694,3.7673,3.7684,3.7629,3.764,3.7583,3.7588,3.7555,3.7581,3.758,3.7564,3.7555,3.7569,3.7571,3.7568,3.7561,3.7533,3.7532,3.7532,3.7531,0,3.7856,3.7814,3.7838,3.7798,3.7788,3.7813,3.7778,3.7792,3.7762,3.7777,3.7777,3.7731,3.7735,3.7692,3.7687,3.7665,3.7706,3.7686,3.7713,3.7707,3.7752,3.7749,3.7904,3.7922,3.7763,3.7765,3.7766,0,3.7928,3.7948,3.7911,3.7914,3.79,3.7906,3.7904,3.7853,3.7854,3.7832,3.7848,3.7847,3.7843,3.7852,3.7819,3.7816,3.7795,3.785,3.7794,3.7808,3.7796,3.7796,3.7798,3.7862,3.7864,3.7865,3.7867,0,3.8061,3.8039,3.8038,3.803,3.803,3.8021,3.8009,3.8015,3.796,3.7964,3.7966,3.7964,3.7959,3.7959,3.795,3.7933,3.7892,3.7885,3.7894,3.7909,3.7924,3.7917,3.7745,3.7881,3.788,3.7879,3.7878,3.7877,3.8163,3.8179,3.8155,3.8156,3.8141,3.8132,3.8142,3.8115,3.8116,3.8108,3.8078,3.8087,3.8066,3.8048,3.8036,3.8043,3.8016,3.803,3.8033,3.8038,3.8046,3.7923,3.8041,3.804,3.804,3.8039,3.8039,0,3.8293,3.8275,3.8276,3.8261,3.8262,3.8222,3.8207,3.8211,3.8219,3.8203,3.8201,3.8205,3.8205,3.8172,3.8168,3.818,3.816,3.818,3.8179,3.8176,3.807,3.8062,3.8196,3.8196,3.8196,3.8196,3.8196,3.8196,3.8361,3.8385,3.8361,3.8378,3.8359,3.8366,3.8361,3.8352,3.8339,3.8346,3.8346,3.8324,3.8302,3.8296,3.8294,3.8285,3.8286,3.8313,3.8297,3.8199,3.8183,3.8169,3.8161,3.8314,3.8314,3.8402,3.8403,3.8404]}]]